| time (UTC) | temp F | wind direction | speed knots | gust knots | rain 1hr in | rain 24hr in | rain mn in | humidity % | barometer mb |
| 20260904141342 | 85 | 180 | 0.0 | 4.3 | 0.00 | 0.00 | 0.00 | 61 | 1011.5 |
| 20260904141114 | 85 | 180 | 0.9 | 4.3 | 0.00 | 0.00 | 0.00 | 61 | 1011.1 |
| 20260904140342 | 84 | 180 | 0.9 | 6.1 | 0.00 | 0.00 | 0.00 | 61 | 1011.1 |
| 20260904135842 | 84 | 180 | 0.9 | 6.1 | 0.00 | 0.00 | 0.00 | 61 | 1010.8 |
| 20260904135340 | 84 | 135 | 0.9 | 6.1 | 0.00 | 0.00 | 0.00 | 61 | 1010.8 |
| 20260904135111 | 84 | 180 | 0.9 | 5.2 | 0.00 | 0.00 | 0.00 | 61 | 1010.8 |
| 20260904134341 | 84 | 203 | 0.9 | 5.2 | 0.00 | 0.00 | 0.00 | 61 | 1010.8 |
| 20260904133842 | 84 | 203 | 0.9 | 4.3 | 0.00 | 0.00 | 0.00 | 61 | 1010.8 |
| 20260904133342 | 84 | 203 | 0.9 | 4.3 | 0.00 | 0.00 | 0.00 | 61 | 1010.5 |
| 20260904132842 | 84 | 45 | 0.9 | 4.3 | 0.00 | 0.00 | 0.00 | 61 | 1010.8 |
| 20260904132342 | 84 | 158 | 0.9 | 2.6 | 0.00 | 0.00 | 0.00 | 61 | 1010.5 |
| 20260904131842 | 84 | 113 | 0.0 | 5.2 | 0.00 | 0.00 | 0.00 | 61 | 1010.8 |
| 20260904131342 | 84 | 45 | 0.9 | 5.2 | 0.00 | 0.00 | 0.00 | 61 | 1010.5 |
| 20260904130842 | 84 | 180 | 0.9 | 5.2 | 0.00 | 0.00 | 0.00 | 60 | 1010.5 |
| 20260904130341 | 84 | 45 | 0.0 | 2.6 | 0.00 | 0.00 | 0.00 | 60 | 1010.5 |
| 20260904125840 | 84 | 113 | 0.9 | 2.6 | 0.00 | 0.00 | 0.00 | 60 | 1010.0 |
| 20260904125341 | 84 | 135 | 0.0 | 1.7 | 0.00 | 0.00 | 0.00 | 60 | 1010.5 |
| 20260904124840 | 84 | 180 | 0.0 | 2.6 | 0.00 | 0.00 | 0.00 | 60 | 1010.0 |
| 20260904124346 | 84 | 180 | 0.0 | 2.6 | 0.00 | 0.00 | 0.00 | 59 | 1009.7 |
| 20260904124342 | 84 | 270 | 0.0 | 2.6 | 0.00 | 0.00 | 0.00 | 60 | 1010.0 |
| 20260904123342 | 84 | 113 | 0.9 | 2.6 | 0.00 | 0.00 | 0.00 | 59 | 1010.0 |
| 20260904122841 | 84 | 203 | 0.0 | 2.6 | 0.00 | 0.00 | 0.00 | 59 | 1009.7 |
| 20260904122342 | 84 | 90 | 0.9 | 3.5 | 0.00 | 0.00 | 0.00 | 59 | 1009.7 |
| 20260904122111 | 85 | 158 | 0.9 | 3.5 | 0.00 | 0.00 | 0.00 | 59 | 1009.7 |
| 20260904121340 | 85 | 45 | 0.0 | 2.6 | 0.00 | 0.00 | 0.00 | 58 | 1009.3 |
| 20260904120841 | 85 | 113 | 0.0 | 2.6 | 0.00 | 0.00 | 0.00 | 58 | 1009.7 |
| 20260904120341 | 85 | 180 | 0.0 | 2.6 | 0.00 | 0.00 | 0.00 | 58 | 1009.7 |
| 20260904115841 | 85 | 135 | 0.0 | 0.9 | 0.00 | 0.00 | 0.00 | 58 | 1009.7 |
| 20260904115342 | 85 | 225 | 0.0 | 1.7 | 0.00 | 0.00 | 0.00 | 56 | 1009.7 |
| 20260904114841 | 85 | 158 | 0.0 | 1.7 | 0.00 | 0.00 | 0.00 | 56 | 1010.0 |
| 20260904114341 | 85 | 135 | 0.0 | 0.9 | 0.00 | 0.00 | 0.00 | 56 | 1009.7 |
| 20260904113842 | 85 | 135 | 0.0 | 2.6 | 0.00 | 0.00 | 0.00 | 56 | 1009.7 |
| 20260904113341 | 85 | 158 | 0.0 | 2.6 | 0.00 | 0.00 | 0.00 | 56 | 1009.7 |
| 20260904112841 | 85 | 135 | 0.0 | 3.5 | 0.00 | 0.00 | 0.00 | 56 | 1009.7 |
| 20260904112340 | 85 | 203 | 0.0 | 3.5 | 0.00 | 0.00 | 0.00 | 56 | 1009.7 |
| 20260904111841 | 85 | 180 | 0.0 | 3.5 | 0.00 | 0.00 | 0.00 | 56 | 1009.7 |
| 20260904111341 | 85 | 203 | 0.0 | 3.5 | 0.00 | 0.00 | 0.00 | 55 | 1009.7 |
| 20260904111112 | 85 | 203 | 0.0 | 2.6 | 0.00 | 0.00 | 0.00 | 55 | 1009.7 |
| 20260904110341 | 85 | 180 | 0.0 | 1.7 | 0.00 | 0.00 | 0.00 | 55 | 1009.3 |
| 20260904105841 | 85 | 113 | 0.0 | 1.7 | 0.00 | 0.00 | 0.00 | 55 | 1009.3 |
| 20260904105342 | 85 | 0 | 0.0 | 0.9 | 0.00 | 0.00 | 0.00 | 55 | 1009.3 |
| 20260904104842 | 85 | 293 | 0.0 | 2.6 | 0.00 | 0.00 | 0.00 | 55 | 1009.7 |
| 20260904104340 | 85 | 45 | 0.0 | 2.6 | 0.00 | 0.00 | 0.00 | 55 | 1009.3 |
| 20260904103841 | 85 | 45 | 0.0 | 2.6 | 0.00 | 0.00 | 0.00 | 55 | 1009.7 |
| 20260904103340 | 85 | 248 | 0.0 | 3.5 | 0.00 | 0.00 | 0.00 | 55 | 1009.3 |
| 20260904102841 | 85 | 180 | 0.0 | 3.5 | 0.00 | 0.00 | 0.00 | 55 | 1009.3 |
| 20260904102613 | 85 | 180 | 0.0 | 3.5 | 0.00 | 0.00 | 0.00 | 55 | 1009.3 |
| 20260904101841 | 86 | 158 | 0.0 | 3.5 | 0.00 | 0.00 | 0.00 | 55 | 1009.3 |
| 20260904101342 | 86 | 158 | 0.0 | 3.5 | 0.00 | 0.00 | 0.00 | 55 | 1009.3 |
| 20260904100841 | 86 | 158 | 0.0 | 2.6 | 0.00 | 0.00 | 0.00 | 55 | 1009.3 |
| 20260904100342 | 86 | 158 | 0.0 | 2.6 | 0.00 | 0.00 | 0.00 | 55 | 1009.3 |
| 20260904095840 | 86 | 68 | 0.0 | 3.5 | 0.00 | 0.00 | 0.00 | 55 | 1009.0 |
| 20260904095340 | 86 | 180 | 0.0 | 4.3 | 0.00 | 0.00 | 0.00 | 55 | 1009.0 |
| 20260904094841 | 86 | 180 | 0.0 | 4.3 | 0.00 | 0.00 | 0.00 | 55 | 1009.3 |
| 20260904094340 | 86 | 180 | 0.0 | 4.3 | 0.00 | 0.00 | 0.00 | 55 | 1009.0 |
| 20260904093841 | 86 | 158 | 0.0 | 4.3 | 0.00 | 0.00 | 0.00 | 55 | 1009.0 |
| 20260904093341 | 86 | 248 | 0.0 | 0.0 | 0.00 | 0.00 | 0.00 | 54 | 1009.0 |
| 20260904092842 | 86 | 270 | 0.0 | 0.9 | 0.00 | 0.00 | 0.00 | 54 | 1009.0 |
| 20260904092341 | 86 | 135 | 0.0 | 0.9 | 0.00 | 0.00 | 0.00 | 54 | 1009.0 |
| 20260904092112 | 86 | 45 | 0.0 | 0.0 | 0.00 | 0.00 | 0.00 | 55 | 1009.0 |
| 20260904091342 | 86 | 23 | 0.0 | 0.0 | 0.00 | 0.00 | 0.00 | 54 | 1009.0 |
| 20260904090840 | 86 | 23 | 0.0 | 0.9 | 0.00 | 0.00 | 0.00 | 53 | 1009.3 |
| 20260904090610 | 86 | 45 | 0.0 | 0.9 | 0.00 | 0.00 | 0.00 | 54 | 1008.7 |
| 20260904085840 | 86 | 270 | 0.0 | 0.9 | 0.00 | 0.00 | 0.00 | 54 | 1009.0 |
| 20260904085341 | 86 | 180 | 0.0 | 0.0 | 0.00 | 0.00 | 0.00 | 55 | 1009.0 |
| 20260904084841 | 86 | 180 | 0.0 | 0.0 | 0.00 | 0.00 | 0.00 | 54 | 1009.3 |
| 20260904084613 | 86 | 180 | 0.0 | 1.7 | 0.00 | 0.00 | 0.00 | 54 | 1009.3 |
| 20260904083841 | 86 | 180 | 0.0 | 1.7 | 0.00 | 0.00 | 0.00 | 53 | 1009.3 |
| 20260904083342 | 86 | 180 | 0.0 | 1.7 | 0.00 | 0.00 | 0.00 | 54 | 1009.3 |
| 20260904082840 | 86 | 203 | 0.0 | 3.5 | 0.00 | 0.00 | 0.00 | 53 | 1009.3 |
| 20260904082341 | 86 | 180 | 0.9 | 3.5 | 0.00 | 0.00 | 0.00 | 54 | 1009.3 |
| 20260904081841 | 86 | 203 | 0.0 | 3.5 | 0.00 | 0.00 | 0.00 | 54 | 1009.0 |
| 20260904081340 | 86 | 158 | 0.9 | 5.2 | 0.00 | 0.00 | 0.00 | 54 | 1009.0 |
| 20260904080841 | 87 | 135 | 0.9 | 5.2 | 0.00 | 0.00 | 0.00 | 53 | 1009.3 |
| 20260904080341 | 87 | 180 | 0.9 | 6.1 | 0.00 | 0.00 | 0.00 | 54 | 1009.3 |
| 20260904075842 | 87 | 180 | 0.9 | 6.1 | 0.00 | 0.00 | 0.00 | 53 | 1009.0 |
| 20260904075341 | 87 | 158 | 0.9 | 5.2 | 0.00 | 0.00 | 0.00 | 53 | 1009.3 |
| 20260904074842 | 87 | 180 | 0.9 | 5.2 | 0.00 | 0.00 | 0.00 | 53 | 1009.3 |
| 20260904074340 | 87 | 180 | 0.9 | 6.1 | 0.00 | 0.00 | 0.00 | 53 | 1009.3 |
| 20260904073841 | 87 | 225 | 1.7 | 6.1 | 0.00 | 0.00 | 0.00 | 53 | 1009.0 |
| 20260904073339 | 87 | 225 | 0.9 | 7.0 | 0.00 | 0.00 | 0.00 | 51 | 1009.0 |
| 20260904072840 | 87 | 158 | 1.7 | 7.0 | 0.00 | 0.00 | 0.00 | 51 | 1009.0 |
| 20260904072341 | 87 | 225 | 0.9 | 6.1 | 0.00 | 0.00 | 0.00 | 51 | 1009.0 |
| 20260904071341 | 88 | 180 | 0.9 | 5.2 | 0.00 | 0.00 | 0.00 | 51 | 1009.0 |
| 20260904070841 | 88 | 203 | 0.9 | 5.2 | 0.00 | 0.00 | 0.00 | 51 | 1009.0 |
| 20260904070340 | 88 | 203 | 0.9 | 5.2 | 0.00 | 0.00 | 0.00 | 51 | 1009.0 |
| 20260904065839 | 88 | 90 | 0.9 | 5.2 | 0.00 | 0.00 | 0.00 | 50 | 1009.0 |
| 20260904065610 | 88 | 203 | 0.9 | 4.3 | 0.00 | 0.00 | 0.00 | 50 | 1008.7 |
| 20260904065558 | 88 | 203 | 0.9 | 6.1 | 0.00 | 0.00 | 0.00 | 50 | 1008.7 |
| 20260904064340 | 89 | 180 | 0.9 | 6.1 | 0.00 | 0.00 | 0.00 | 50 | 1008.7 |
| 20260904063840 | 89 | 180 | 1.7 | 6.1 | 0.00 | 0.00 | 0.00 | 50 | 1008.7 |
| 20260904063340 | 89 | 203 | 0.9 | 5.2 | 0.00 | 0.00 | 0.00 | 50 | 1008.7 |
| 20260904062841 | 89 | 203 | 1.7 | 5.2 | 0.00 | 0.00 | 0.00 | 50 | 1008.7 |
| 20260904062341 | 89 | 180 | 0.9 | 9.6 | 0.00 | 0.00 | 0.00 | 50 | 1008.7 |
| 20260904061840 | 89 | 180 | 1.7 | 9.6 | 0.00 | 0.00 | 0.00 | 49 | 1008.7 |
| 20260904061341 | 89 | 203 | 1.7 | 7.8 | 0.00 | 0.00 | 0.00 | 49 | 1008.7 |
| 20260904060839 | 90 | 180 | 1.7 | 7.0 | 0.00 | 0.00 | 0.00 | 49 | 1008.7 |
| 20260904060339 | 90 | 158 | 1.7 | 7.0 | 0.00 | 0.00 | 0.00 | 48 | 1008.7 |
| 20260904055840 | 90 | 135 | 1.7 | 7.8 | 0.00 | 0.00 | 0.00 | 48 | 1008.3 |
| 20260904055339 | 90 | 180 | 1.7 | 7.8 | 0.00 | 0.00 | 0.00 | 46 | 1008.3 |
| 20260904054840 | 90 | 180 | 1.7 | 7.8 | 0.00 | 0.00 | 0.00 | 46 | 1008.3 |
| 20260904054340 | 90 | 180 | 0.9 | 4.3 | 0.00 | 0.00 | 0.00 | 45 | 1008.3 |
| 20260904053840 | 91 | 180 | 0.9 | 6.1 | 0.00 | 0.00 | 0.00 | 45 | 1008.7 |
| 20260904053340 | 91 | 203 | 0.9 | 7.8 | 0.00 | 0.00 | 0.00 | 45 | 1008.3 |
| 20260904052840 | 91 | 158 | 1.7 | 7.8 | 0.00 | 0.00 | 0.00 | 45 | 1008.3 |
| 20260904052611 | 91 | 113 | 1.7 | 7.0 | 0.00 | 0.00 | 0.00 | 45 | 1008.3 |
| 20260904051839 | 91 | 158 | 0.0 | 4.3 | 0.00 | 0.00 | 0.00 | 44 | 1008.3 |
| 20260904051339 | 91 | 203 | 0.9 | 4.3 | 0.00 | 0.00 | 0.00 | 44 | 1008.3 |
| 20260904050838 | 91 | 180 | 0.9 | 2.6 | 0.00 | 0.00 | 0.00 | 43 | 1008.3 |
| 20260904050340 | 91 | 203 | 0.0 | 3.5 | 0.00 | 0.00 | 0.00 | 43 | 1008.0 |
| 20260904045840 | 91 | 203 | 0.9 | 4.3 | 0.00 | 0.00 | 0.00 | 43 | 1008.3 |
| 20260904045340 | 91 | 203 | 0.9 | 6.1 | 0.00 | 0.00 | 0.00 | 43 | 1008.3 |
| 20260904044845 | 91 | 225 | 0.9 | 6.1 | 0.00 | 0.00 | 0.00 | 43 | 1008.3 |
| 20260904044340 | 91 | 180 | 1.7 | 7.8 | 0.00 | 0.00 | 0.00 | 43 | 1008.7 |
| 20260904043838 | 91 | 180 | 1.7 | 7.8 | 0.00 | 0.00 | 0.00 | 41 | 1008.3 |
| 20260904043339 | 91 | 158 | 0.9 | 5.2 | 0.00 | 0.00 | 0.00 | 41 | 1008.3 |
| 20260904042838 | 91 | 203 | 0.9 | 5.2 | 0.00 | 0.00 | 0.00 | 41 | 1008.3 |
| 20260904042338 | 91 | 203 | 0.9 | 5.2 | 0.00 | 0.00 | 0.00 | 41 | 1008.3 |
| 20260904041840 | 91 | 203 | 0.9 | 5.2 | 0.00 | 0.00 | 0.00 | 41 | 1008.0 |
| 20260904041339 | 91 | 180 | 0.9 | 5.2 | 0.00 | 0.00 | 0.00 | 41 | 1008.0 |
| 20260904040844 | 91 | 270 | 0.0 | 3.5 | 0.00 | 0.00 | 0.00 | 43 | 1008.0 |
| 20260904040839 | 91 | 225 | 0.0 | 2.6 | 0.00 | 0.00 | 0.00 | 43 | 1008.0 |
| 20260904035839 | 91 | 180 | 0.0 | 3.5 | 0.00 | 0.00 | 0.00 | 43 | 1008.0 |
| 20260904035338 | 91 | 180 | 0.0 | 3.5 | 0.00 | 0.00 | 0.00 | 43 | 1008.0 |
| 20260904034840 | 91 | 158 | 0.9 | 3.5 | 0.00 | 0.00 | 0.00 | 43 | 1007.6 |
| 20260904034609 | 91 | 180 | 0.0 | 2.6 | 0.00 | 0.00 | 0.00 | 43 | 1007.6 |
| 20260904033842 | 91 | 135 | 0.9 | 4.3 | 0.00 | 0.00 | 0.00 | 43 | 1007.3 |
| 20260904033838 | 91 | 135 | 0.0 | 4.3 | 0.00 | 0.00 | 0.00 | 43 | 1007.6 |
| 20260904032838 | 91 | 203 | 0.0 | 3.5 | 0.00 | 0.00 | 0.00 | 41 | 1007.6 |
| 20260904032339 | 91 | 113 | 0.0 | 0.9 | 0.00 | 0.00 | 0.00 | 41 | 1007.3 |
| 20260904031840 | 91 | 113 | 0.0 | 1.7 | 0.00 | 0.00 | 0.00 | 41 | 1007.3 |
| 20260904031339 | 91 | 158 | 0.0 | 1.7 | 0.00 | 0.00 | 0.00 | 41 | 1007.3 |
| 20260904030837 | 91 | 248 | 0.0 | 2.6 | 0.00 | 0.00 | 0.00 | 41 | 1007.3 |
| 20260904030337 | 91 | 203 | 0.0 | 2.6 | 0.00 | 0.00 | 0.00 | 41 | 1007.3 |
| 20260904025838 | 92 | 158 | 0.0 | 0.9 | 0.00 | 0.00 | 0.00 | 41 | 1007.3 |
| 20260904025338 | 92 | 113 | 0.0 | 0.9 | 0.00 | 0.00 | 0.00 | 41 | 1007.3 |
| 20260904025109 | 92 | 338 | 0.0 | 1.7 | 0.00 | 0.00 | 0.00 | 41 | 1006.9 |
| 20260904024610 | 92 | 248 | 0.0 | 1.7 | 0.00 | 0.00 | 0.00 | 41 | 1006.9 |
| 20260904023839 | 92 | 113 | 0.0 | 2.6 | 0.00 | 0.00 | 0.00 | 40 | 1006.5 |
| 20260904023611 | 92 | 248 | 0.0 | 2.6 | 0.00 | 0.00 | 0.00 | 41 | 1006.9 |
| 20260904022839 | 92 | 293 | 0.0 | 2.6 | 0.00 | 0.00 | 0.00 | 41 | 1006.9 |
| 20260904022337 | 92 | 270 | 0.0 | 2.6 | 0.00 | 0.00 | 0.00 | 41 | 1006.9 |
| 20260904021838 | 92 | 180 | 0.9 | 2.6 | 0.00 | 0.00 | 0.00 | 41 | 1006.9 |
| 20260904021339 | 92 | 158 | 0.0 | 2.6 | 0.00 | 0.00 | 0.00 | 41 | 1006.5 |
| 20260904020837 | 92 | 135 | 0.0 | 4.3 | 0.00 | 0.00 | 0.00 | 40 | 1006.9 |
| 20260904020338 | 92 | 270 | 0.9 | 6.1 | 0.00 | 0.00 | 0.00 | 40 | 1006.9 |
| 20260904015839 | 92 | 270 | 0.9 | 7.0 | 0.00 | 0.00 | 0.00 | 41 | 1006.9 |
| 20260904015339 | 93 | 180 | 1.7 | 7.0 | 0.00 | 0.00 | 0.00 | 40 | 1006.9 |
| 20260904014838 | 93 | 180 | 0.9 | 7.0 | 0.00 | 0.00 | 0.00 | 40 | 1006.9 |
| 20260904014339 | 93 | 225 | 0.9 | 6.1 | 0.00 | 0.00 | 0.00 | 41 | 1006.9 |
| 20260904014111 | 93 | 180 | 0.9 | 7.8 | 0.00 | 0.00 | 0.00 | 40 | 1007.3 |
| 20260904013338 | 93 | 203 | 1.7 | 9.6 | 0.00 | 0.00 | 0.00 | 40 | 1006.9 |
| 20260904012837 | 94 | 158 | 1.7 | 9.6 | 0.00 | 0.00 | 0.00 | 40 | 1006.9 |
| 20260904012337 | 94 | 158 | 2.6 | 9.6 | 0.00 | 0.00 | 0.00 | 37 | 1006.9 |
| 20260904011838 | 95 | 180 | 1.7 | 8.7 | 0.00 | 0.00 | 0.00 | 37 | 1006.9 |
| 20260904011339 | 96 | 180 | 1.7 | 11.3 | 0.00 | 0.00 | 0.00 | 37 | 1006.9 |
| 20260904010838 | 97 | 180 | 2.6 | 11.3 | 0.00 | 0.00 | 0.00 | 35 | 1006.9 |
| 20260904010338 | 98 | 158 | 1.7 | 8.7 | 0.00 | 0.00 | 0.00 | 34 | 1006.5 |
| 20260904005839 | 98 | 158 | 0.9 | 3.5 | 0.00 | 0.00 | 0.00 | 34 | 1006.2 |
| 20260904005337 | 98 | 180 | 0.9 | 3.5 | 0.00 | 0.00 | 0.00 | 32 | 1006.5 |
| 20260904004837 | 98 | 203 | 0.9 | 4.3 | 0.00 | 0.00 | 0.00 | 32 | 1006.5 |
| 20260904004608 | 98 | 203 | 0.9 | 5.2 | 0.00 | 0.00 | 0.00 | 31 | 1006.2 |
| 20260904004108 | 98 | 180 | 0.9 | 5.2 | 0.00 | 0.00 | 0.00 | 31 | 1006.2 |
| 20260904003337 | 99 | 180 | 0.9 | 5.2 | 0.00 | 0.00 | 0.00 | 31 | 1006.2 |
| 20260904003109 | 99 | 180 | 0.9 | 5.2 | 0.00 | 0.00 | 0.00 | 31 | 1006.2 |
| 20260904002338 | 99 | 180 | 0.0 | 5.2 | 0.00 | 0.00 | 0.00 | 31 | 1006.2 |
| 20260904001839 | 99 | 180 | 0.9 | 6.1 | 0.00 | 0.00 | 0.00 | 31 | 1006.2 |
| 20260904001609 | 99 | 180 | 0.9 | 6.1 | 0.00 | 0.00 | 0.00 | 31 | 1006.2 |
| 20260904000839 | 99 | 180 | 0.9 | 5.2 | 0.00 | 0.00 | 0.00 | 31 | 1006.2 |
| 20260904000340 | 100 | 203 | 1.7 | 5.2 | 0.00 | 0.00 | 0.00 | 31 | 1006.2 |
| 20260903235837 | 100 | 248 | 0.0 | 3.5 | 0.00 | 0.00 | 0.00 | 31 | 1006.2 |
| 20260903235337 | 100 | 180 | 0.0 | 3.5 | 0.00 | 0.00 | 0.00 | 32 | 1006.2 |
| 20260903234838 | 100 | 90 | 0.9 | 5.2 | 0.00 | 0.00 | 0.00 | 31 | 1006.2 |
| 20260903234338 | 100 | 248 | 0.9 | 5.2 | 0.00 | 0.00 | 0.00 | 31 | 1006.2 |
| 20260903233838 | 100 | 225 | 0.9 | 5.2 | 0.00 | 0.00 | 0.00 | 30 | 1006.2 |
| 20260903233338 | 100 | 248 | 0.0 | 3.5 | 0.00 | 0.00 | 0.00 | 34 | 1006.5 |
| 20260903232838 | 100 | 338 | 0.0 | 3.5 | 0.00 | 0.00 | 0.00 | 31 | 1006.5 |
| 20260903232338 | 100 | 45 | 0.0 | 4.3 | 0.00 | 0.00 | 0.00 | 31 | 1006.5 |
| 20260903231836 | 100 | 203 | 0.9 | 6.1 | 0.00 | 0.00 | 0.00 | 30 | 1006.5 |
| 20260903231337 | 100 | 23 | 0.9 | 6.1 | 0.00 | 0.00 | 0.00 | 30 | 1006.5 |
| 20260903231108 | 101 | 203 | 0.9 | 7.0 | 0.00 | 0.00 | 0.00 | 30 | 1006.5 |
| 20260903230338 | 101 | 135 | 1.7 | 7.0 | 0.00 | 0.00 | 0.00 | 30 | 1006.9 |
| 20260903225837 | 101 | 158 | 0.9 | 7.0 | 0.00 | 0.00 | 0.00 | 30 | 1006.9 |
| 20260903225608 | 101 | 203 | 0.9 | 7.0 | 0.00 | 0.00 | 0.00 | 30 | 1006.9 |
| 20260903224837 | 101 | 225 | 0.9 | 7.0 | 0.00 | 0.00 | 0.00 | 30 | 1006.9 |
| 20260903224609 | 101 | 203 | 0.0 | 3.5 | 0.00 | 0.00 | 0.00 | 31 | 1006.9 |
| 20260903223837 | 101 | 203 | 0.0 | 3.5 | 0.00 | 0.00 | 0.00 | 30 | 1006.9 |
| 20260903223338 | 101 | 90 | 0.9 | 3.5 | 0.00 | 0.00 | 0.00 | 30 | 1007.3 |
| 20260903222836 | 101 | 270 | 0.9 | 3.5 | 0.00 | 0.00 | 0.00 | 30 | 1007.3 |
| 20260903222336 | 101 | 180 | 0.0 | 2.6 | 0.00 | 0.00 | 0.00 | 30 | 1007.3 |
| 20260903221836 | 101 | 180 | 0.0 | 6.1 | 0.00 | 0.00 | 0.00 | 31 | 1007.3 |
| 20260903221337 | 101 | 113 | 1.7 | 6.1 | 0.00 | 0.00 | 0.00 | 30 | 1007.3 |
| 20260903220837 | 101 | 180 | 0.9 | 4.3 | 0.00 | 0.00 | 0.00 | 30 | 1007.6 |
| 20260903220337 | 100 | 180 | 0.9 | 4.3 | 0.00 | 0.00 | 0.00 | 31 | 1007.6 |
| 20260903220109 | 100 | 158 | 0.0 | 1.7 | 0.00 | 0.00 | 0.00 | 30 | 1007.6 |
| 20260903215318 | 100 | 158 | 0.0 | 6.1 | 0.00 | 0.00 | 0.00 | 32 | 1007.6 |
| 20260903214817 | 100 | 203 | 1.7 | 6.1 | 0.00 | 0.00 | 0.00 | 30 | 1008.0 |
| 20260903214317 | 100 | 203 | 1.7 | 7.0 | 0.00 | 0.00 | 0.00 | 30 | 1008.0 |
| 20260903213818 | 100 | 158 | 1.7 | 7.0 | 0.00 | 0.00 | 0.00 | 30 | 1008.3 |
| 20260903213317 | 100 | 270 | 0.9 | 7.8 | 0.00 | 0.00 | 0.00 | 32 | 1008.3 |
| 20260903212817 | 100 | 203 | 1.7 | 7.8 | 0.00 | 0.00 | 0.00 | 30 | 1008.3 |
| 20260903212318 | 100 | 113 | 0.9 | 7.8 | 0.00 | 0.00 | 0.00 | 31 | 1008.3 |
| 20260903211818 | 100 | 158 | 1.7 | 7.8 | 0.00 | 0.00 | 0.00 | 30 | 1008.7 |
| 20260903211549 | 100 | 180 | 0.0 | 5.2 | 0.00 | 0.00 | 0.00 | 30 | 1008.7 |
| 20260903211535 | 99 | 248 | 0.9 | 6.1 | 0.00 | 0.00 | 0.00 | 32 | 1008.7 |
| 20260903210818 | 99 | 203 | 0.9 | 5.2 | 0.00 | 0.00 | 0.00 | 30 | 1008.7 |
| 20260903205817 | 99 | 158 | 1.7 | 8.7 | 0.00 | 0.00 | 0.00 | 31 | 1009.0 |
| 20260903205321 | 99 | 180 | 1.7 | 8.7 | 0.00 | 0.00 | 0.00 | 30 | 1009.0 |
| 20260903205317 | 99 | 180 | 2.6 | 8.7 | 0.00 | 0.00 | 0.00 | 31 | 1009.0 |
| 20260903204317 | 99 | 270 | 0.0 | 3.5 | 0.00 | 0.00 | 0.00 | 34 | 1009.0 |
| 20260903203822 | 99 | 180 | 1.7 | 8.7 | 0.00 | 0.00 | 0.00 | 31 | 1009.3 |
| 20260903203818 | 99 | 158 | 0.9 | 8.7 | 0.00 | 0.00 | 0.00 | 31 | 1009.0 |
| 20260903202818 | 99 | 270 | 1.7 | 7.8 | 0.00 | 0.00 | 0.00 | 30 | 1009.3 |
| 20260903202318 | 99 | 203 | 0.9 | 7.8 | 0.00 | 0.00 | 0.00 | 31 | 1009.3 |
| 20260903201816 | 99 | 248 | 0.9 | 7.0 | 0.00 | 0.00 | 0.00 | 30 | 1009.7 |
| 20260903201547 | 99 | 203 | 1.7 | 7.8 | 0.00 | 0.00 | 0.00 | 31 | 1009.3 |
| 20260903200816 | 99 | 203 | 0.9 | 7.8 | 0.00 | 0.00 | 0.00 | 31 | 1009.7 |
| 20260903200316 | 99 | 203 | 0.9 | 7.0 | 0.00 | 0.00 | 0.00 | 30 | 1009.7 |
| 20260903195817 | 99 | 90 | 0.9 | 5.2 | 0.00 | 0.00 | 0.00 | 30 | 1010.0 |
| 20260903195549 | 99 | 203 | 0.9 | 7.8 | 0.00 | 0.00 | 0.00 | 31 | 1009.7 |
| 20260903194817 | 99 | 158 | 1.7 | 7.8 | 0.00 | 0.00 | 0.00 | 31 | 1010.0 |
| 20260903194317 | 99 | 203 | 0.9 | 7.0 | 0.00 | 0.00 | 0.00 | 32 | 1010.0 |
| 20260903193818 | 98 | 180 | 0.9 | 7.0 | 0.00 | 0.00 | 0.00 | 34 | 1010.0 |
| 20260903193316 | 98 | 203 | 0.9 | 7.0 | 0.00 | 0.00 | 0.00 | 34 | 1010.0 |
| 20260903192816 | 98 | 225 | 0.9 | 7.0 | 0.00 | 0.00 | 0.00 | 34 | 1010.0 |
| 20260903192547 | 98 | 293 | 0.9 | 5.2 | 0.00 | 0.00 | 0.00 | 35 | 1010.5 |
| 20260903191816 | 98 | 135 | 0.9 | 6.1 | 0.00 | 0.00 | 0.00 | 34 | 1010.5 |
| 20260903191316 | 98 | 180 | 1.7 | 6.1 | 0.00 | 0.00 | 0.00 | 35 | 1010.5 |
| 20260903190816 | 98 | 180 | 0.9 | 6.1 | 0.00 | 0.00 | 0.00 | 35 | 1010.5 |
| 20260903190316 | 97 | 203 | 0.0 | 6.1 | 0.00 | 0.00 | 0.00 | 35 | 1010.8 |
| 20260903190047 | 97 | 203 | 0.9 | 7.0 | 0.00 | 0.00 | 0.00 | 37 | 1010.5 |
| 20260903185321 | 97 | 248 | 1.7 | 8.7 | 0.00 | 0.00 | 0.00 | 35 | 1010.8 |
| 20260903185317 | 97 | 158 | 0.9 | 7.0 | 0.00 | 0.00 | 0.00 | 35 | 1010.8 |
| 20260903184547 | 97 | 158 | 1.7 | 8.7 | 0.00 | 0.00 | 0.00 | 35 | 1010.8 |
| 20260903183815 | 98 | 158 | 0.9 | 5.2 | 0.00 | 0.00 | 0.00 | 37 | 1011.1 |
| 20260903183315 | 98 | 203 | 0.9 | 5.2 | 0.00 | 0.00 | 0.00 | 37 | 1011.1 |
| 20260903182815 | 97 | 23 | 0.9 | 5.2 | 0.00 | 0.00 | 0.00 | 37 | 1011.1 |
| 20260903182316 | 97 | 203 | 0.9 | 7.0 | 0.00 | 0.00 | 0.00 | 37 | 1011.1 |
| 20260903181816 | 97 | 270 | 0.9 | 7.0 | 0.00 | 0.00 | 0.00 | 37 | 1011.5 |
| 20260903181315 | 97 | 225 | 0.9 | 5.2 | 0.00 | 0.00 | 0.00 | 35 | 1011.1 |
| 20260903180815 | 96 | 180 | 0.9 | 5.2 | 0.00 | 0.00 | 0.00 | 37 | 1011.5 |
| 20260903180315 | 96 | 203 | 0.9 | 5.2 | 0.00 | 0.00 | 0.00 | 39 | 1011.8 |
| 20260903180046 | 96 | 180 | 0.0 | 3.5 | 0.00 | 0.00 | 0.00 | 40 | 1011.8 |
| 20260903175314 | 96 | 113 | 0.9 | 3.5 | 0.00 | 0.00 | 0.00 | 40 | 1011.5 |
| 20260903174815 | 95 | 248 | 0.9 | 3.5 | 0.00 | 0.00 | 0.00 | 40 | 1011.8 |
| 20260903174314 | 95 | 113 | 0.0 | 7.0 | 0.00 | 0.00 | 0.00 | 40 | 1011.8 |
| 20260903173815 | 95 | 158 | 0.9 | 7.0 | 0.00 | 0.00 | 0.00 | 40 | 1011.8 |
| 20260903173316 | 94 | 135 | 0.9 | 5.2 | 0.00 | 0.00 | 0.00 | 40 | 1011.8 |
| 20260903172815 | 94 | 45 | 0.9 | 5.2 | 0.00 | 0.00 | 0.00 | 40 | 1012.1 |
| 20260903172315 | 94 | 248 | 0.9 | 6.1 | 0.00 | 0.00 | 0.00 | 41 | 1012.1 |
| 20260903171814 | 94 | 180 | 0.9 | 6.1 | 0.00 | 0.00 | 0.00 | 40 | 1011.8 |
| 20260903171546 | 94 | 158 | 0.9 | 6.1 | 0.00 | 0.00 | 0.00 | 41 | 1011.8 |
| 20260903170814 | 93 | 180 | 0.9 | 7.0 | 0.00 | 0.00 | 0.00 | 41 | 1011.8 |
| 20260903170314 | 93 | 158 | 0.9 | 7.0 | 0.00 | 0.00 | 0.00 | 43 | 1011.8 |
| 20260903170046 | 93 | 180 | 1.7 | 7.0 | 0.00 | 0.00 | 0.00 | 43 | 1012.1 |
| 20260903165315 | 93 | 180 | 0.9 | 6.1 | 0.00 | 0.00 | 0.00 | 43 | 1011.8 |
| 20260903164817 | 93 | 225 | 0.9 | 6.1 | 0.00 | 0.00 | 0.00 | 43 | 1012.1 |
| 20260903164315 | 92 | 113 | 0.9 | 6.1 | 0.00 | 0.00 | 0.00 | 44 | 1012.1 |
| 20260903164047 | 92 | 180 | 0.9 | 4.3 | 0.00 | 0.00 | 0.00 | 45 | 1012.1 |
| 20260903163315 | 92 | 180 | 0.9 | 4.3 | 0.00 | 0.00 | 0.00 | 45 | 1012.1 |
| 20260903162815 | 92 | 180 | 0.9 | 5.2 | 0.00 | 0.00 | 0.00 | 45 | 1012.1 |
| 20260903162314 | 91 | 113 | 1.7 | 5.2 | 0.00 | 0.00 | 0.00 | 45 | 1012.1 |
| 20260903161813 | 91 | 248 | 0.9 | 5.2 | 0.00 | 0.00 | 0.00 | 45 | 1012.1 |
| 20260903161314 | 91 | 225 | 1.7 | 5.2 | 0.00 | 0.00 | 0.00 | 46 | 1012.1 |
| 20260903160815 | 91 | 158 | 0.9 | 3.5 | 0.00 | 0.00 | 0.00 | 48 | 1012.1 |
| 20260903160315 | 90 | 180 | 0.9 | 5.2 | 0.00 | 0.00 | 0.00 | 46 | 1012.1 |
| 20260903160045 | 90 | 135 | 0.9 | 5.2 | 0.00 | 0.00 | 0.00 | 48 | 1012.1 |
| 20260903155315 | 90 | 248 | 0.9 | 4.3 | 0.00 | 0.00 | 0.00 | 49 | 1012.1 |
| 20260903154815 | 89 | 135 | 0.9 | 4.3 | 0.00 | 0.00 | 0.00 | 50 | 1012.1 |
| 20260903154314 | 89 | 225 | 0.9 | 5.2 | 0.00 | 0.00 | 0.00 | 50 | 1012.5 |
| 20260903153813 | 89 | 180 | 0.9 | 5.2 | 0.00 | 0.00 | 0.00 | 50 | 1012.5 |
| 20260903153314 | 88 | 180 | 0.9 | 4.3 | 0.00 | 0.00 | 0.00 | 50 | 1012.1 |
| 20260903152814 | 88 | 180 | 0.9 | 4.3 | 0.00 | 0.00 | 0.00 | 53 | 1012.1 |
| 20260903152314 | 88 | 225 | 0.9 | 4.3 | 0.00 | 0.00 | 0.00 | 53 | 1012.5 |
| 20260903151756 | 87 | 158 | 0.9 | 4.3 | 0.00 | 0.00 | 0.00 | 54 | 1012.1 |
| 20260903151256 | 87 | 203 | 0.9 | 6.1 | 0.00 | 0.00 | 0.00 | 54 | 1012.1 |
| 20260903150756 | 87 | 225 | 0.9 | 6.1 | 0.00 | 0.00 | 0.00 | 55 | 1012.1 |
| 20260903150256 | 87 | 203 | 0.9 | 5.2 | 0.00 | 0.00 | 0.00 | 55 | 1012.1 |
| 20260903145755 | 86 | 180 | 0.9 | 6.1 | 0.00 | 0.00 | 0.00 | 55 | 1012.1 |
| 20260903145254 | 86 | 158 | 0.9 | 6.1 | 0.00 | 0.00 | 0.00 | 55 | 1012.1 |
| 20260903144755 | 85 | 225 | 0.9 | 5.2 | 0.00 | 0.00 | 0.00 | 58 | 1012.1 |
| 20260903144254 | 85 | 158 | 1.7 | 5.2 | 0.00 | 0.00 | 0.00 | 58 | 1012.1 |
| 20260903143756 | 85 | 180 | 0.9 | 4.3 | 0.00 | 0.00 | 0.00 | 59 | 1012.1 |
| 20260903143531 | 84 | 270 | 0.0 | 4.3 | 0.00 | 0.00 | 0.00 | 59 | 1012.1 |
| 20260903143255 | 84 | 203 | 0.0 | 2.6 | 0.00 | 0.00 | 0.00 | 59 | 1012.1 |
| 20260903142255 | 84 | 180 | 0.9 | 4.3 | 0.00 | 0.00 | 0.00 | 60 | 1012.1 |
| 20260903141755 | 84 | 203 | 0.0 | 3.5 | 0.00 | 0.00 | 0.00 | 60 | 1011.8 |